{"data":{"norad_id":46478,"epoch":"2026-05-25T04:37:14.040768Z","epoch_age_seconds":55438,"freshness":"FRESH","line1":"1 46478U 20067A   26145.19252362  .00000763  00000+0  11648-3 0  9990","line2":"2 46478  97.8822 224.1070 0003232   6.7202 353.4051 14.76578191304861","mean_motion":14.76578191,"eccentricity":0.0003232,"inclination_deg":97.8822,"raan_deg":224.107,"arg_perigee_deg":6.7202,"mean_anomaly_deg":353.4051,"bstar":0.00011648,"rev_number":30486,"period_min":97.522773177679,"perigee_km":637.87766685752,"apogee_km":642.41428497315,"semimajor_km":7018.2829759153,"source":"CELESTRAK","updated_at":"2026-05-25T13:37:56.322866Z"}}